QPF
0.00 0.00 0.00 0.00 0.00 0.00 0.00 0.00 0.00 0.00 0.00 0.00 0.00 0.00 0.00 0.00 0.00 0.00 0.00 0.00 0.00 0.00 0.00 0.00 0.01 0.01 0.01 0.01 0.01 0.00 0.01 0.01 0.01 0.01 0.00 0.00 0.01 0.01 0.01 0.01 0.01 0.01 0.01 0.01 0.01 0.00 0.00 0.00 0.00
0.00 0.00 0.00 0.00 0.00 0.00 0.00 0.00 0.00 0.00 0.00 0.00 0.00 0.00 0.00 0.00 0.00 0.00 0.00 0.00 0.00 0.00 0.00 0.00 0.00 0.00 0.00 0.00 0.00 0.01 0.01 0.01 0.02 0.01 0.00 0.01 0.01 0.01 0.01 0.01 0.00 0.00 0.00 0.01 0.00 0.00 0.00 0.00 0.00
0.00 0.00 0.00 0.00 0.00 0.00 0.00 0.00 0.00 0.00 0.00 0.00 0.00 0.00 0.00 0.00 0.00 0.00 0.00 0.00 0.00 0.00 0.00 0.00 0.00 0.00 0.00 0.00 0.00 0.01 0.01 0.01 0.01 0.01 0.01 0.01 0.00 0.01 0.01 0.01 0.00 0.00 0.00 0.00 0.00 0.00 0.00 0.00 0.00
0.00 0.00 0.00 0.00 0.00 0.00 0.00 0.00 0.00 0.00 0.00 0.00 0.00 0.00 0.00 0.00 0.00 0.00 0.00 0.00 0.00 0.00 0.00 0.00 0.00 0.00 0.00 0.00 0.00 0.00 0.01 0.01 0.01 0.00 0.00 0.00 0.00 0.00 0.00 0.00 0.00 0.00 0.00 0.00 0.00 0.00 0.00 0.00 0.00
0.00 0.00 0.00 0.00 0.00 0.00 0.00 0.00 0.00 0.00 0.00 0.00 0.00 0.00 0.00 0.00 0.00 0.00 0.00 0.00 0.00 0.00 0.00 0.00 0.00 0.00 0.00 0.00 0.00 0.00 0.00 0.01 0.01 0.00 0.00 0.00 0.00 0.00 0.00 0.00 0.00 0.00 0.00 0.00 0.00 0.00 0.00 0.00 0.00
0.00 0.00 0.00 0.00 0.00 0.00 0.00 0.00 0.00 0.00 0.00 0.00 0.00 0.00 0.00 0.00 0.00 0.00 0.00 0.00 0.00 0.00 0.00 0.00 0.00 0.00 0.00 0.00 0.00 0.00 0.00 0.01 0.01 0.00 0.00 0.00 0.00 0.00 0.00 0.00 0.00 0.00 0.00 0.00 0.00 0.00 0.00 0.00 0.00
0.00 0.00 0.00 0.00 0.00 0.00 0.00 0.00 0.00 0.00 0.00 0.00 0.00 0.00 0.00 0.00 0.00 0.00 0.00 0.00 0.00 0.00 0.00 0.00 0.00 0.00 0.00 0.00 0.00 0.00 0.00 0.00 0.01 0.00 0.00 0.00 0.00 0.00 0.00 0.00 0.00 0.00 0.00 0.00 0.00 0.00 0.00 0.00 0.00
0.00 0.00 0.00 0.00 0.00 0.00 0.00 0.00 0.00 0.00 0.00 0.00 0.00 0.00 0.00 0.00 0.00 0.00 0.00 0.00 0.00 0.00 0.00 0.00 0.00 0.00 0.00 0.00 0.00 0.00 0.00 0.00 0.00 0.00 0.00 0.00 0.00 0.00 0.00 0.00 0.00 0.00 0.00 0.00 0.00 0.00 0.00 0.00 0.00
0.01 0.00 0.00 0.00 0.00 0.00 0.00 0.00 0.00 0.00 0.00 0.00 0.00 0.00 0.00 0.00 0.00 0.00 0.00 0.00 0.00 0.01 0.00 0.00 0.00 0.00 0.00 0.00 0.00 0.00 0.00 0.00 0.00 0.00 0.00 0.00 0.00 0.00 0.00 0.00 0.00 0.00 0.00 0.00 0.00 0.00 0.00 0.00 0.00
0.02 0.01 0.00 0.00 0.00 0.00 0.00 0.00 0.00 0.00 0.00 0.00 0.00 0.00 0.00 0.00 0.00 0.00 0.00 0.00 0.00 0.00 0.01 0.00 0.00 0.00 0.00 0.00 0.00 0.00 0.00 0.00 0.00 0.00 0.00 0.00 0.00 0.00 0.00 0.00 0.00 0.00 0.00 0.00 0.00 0.00 0.00 0.00 0.00
0.02 0.01 0.00 0.00 0.00 0.00 0.00 0.00 0.00 0.00 0.00 0.00 0.00 0.00 0.00 0.00 0.00 0.00 0.00 0.00 0.00 0.00 0.00 0.00 0.00 0.00 0.00 0.00 0.00 0.00 0.00 0.00 0.00 0.00 0.00 0.00 0.00 0.00 0.00 0.00 0.00 0.00 0.00 0.00 0.00 0.00 0.00 0.00 0.00
0.01 0.01 0.01 0.00 0.00 0.00 0.00 0.00 0.00 0.00 0.00 0.00 0.00 0.00 0.00 0.00 0.00 0.00 0.00 0.00 0.00 0.00 0.00 0.00 0.00 0.00 0.00 0.00 0.00 0.00 0.00 0.00 0.00 0.00 0.00 0.00 0.00 0.00 0.00 0.00 0.00 0.00 0.00 0.00 0.00 0.00 0.00 0.00 0.00
0.01 0.01 0.01 0.01 0.00 0.00 0.00 0.00 0.00 0.00 0.00 0.00 0.00 0.00 0.00 0.00 0.00 0.00 0.00 0.00 0.00 0.00 0.00 0.00 0.00 0.00 0.00 0.00 0.00 0.00 0.00 0.00 0.00 0.00 0.00 0.00 0.00 0.00 0.00 0.00 0.00 0.00 0.00 0.00 0.00 0.00 0.00 0.00 0.00
0.01 0.01 0.01 0.01 0.00 0.00 0.00 0.00 0.00 0.00 0.00 0.00 0.00 0.00 0.00 0.00 0.00 0.00 0.00 0.00 0.00 0.00 0.00 0.00 0.00 0.00 0.00 0.00 0.00 0.00 0.00 0.00 0.00 0.00 0.00 0.00 0.00 0.00 0.00 0.00 0.00 0.00 0.00 0.00 0.00 0.00 0.00 0.00 0.00
0.01 0.01 0.01 0.01 0.00 0.00 0.00 0.00 0.00 0.00 0.00 0.00 0.00 0.00 0.00 0.00 0.00 0.00 0.00 0.00 0.00 0.00 0.00 0.00 0.00 0.00 0.00 0.00 0.00 0.00 0.00 0.00 0.00 0.00 0.00 0.00 0.00 0.00 0.00 0.00 0.00 0.00 0.00 0.00 0.00 0.00 0.00 0.00 0.00
0.02 0.02 0.01 0.00 0.00 0.00 0.00 0.00 0.00 0.00 0.00 0.00 0.00 0.00 0.00 0.00 0.00 0.00 0.00 0.00 0.00 0.00 0.00 0.00 0.00 0.00 0.00 0.00 0.00 0.00 0.00 0.00 0.00 0.00 0.00 0.00 0.00 0.00 0.00 0.00 0.00 0.00 0.00 0.00 0.00 0.00 0.00 0.00 0.00
0.03 0.02 0.01 0.00 0.00 0.00 0.00 0.00 0.00 0.00 0.00 0.00 0.00 0.00 0.00 0.00 0.00 0.00 0.00 0.00 0.00 0.00 0.00 0.00 0.00 0.00 0.00 0.00 0.00 0.00 0.00 0.00 0.00 0.00 0.00 0.00 0.00 0.00 0.00 0.00 0.00 0.00 0.00 0.00 0.00 0.00 0.00 0.00 0.00
0.02 0.01 0.01 0.00 0.00 0.00 0.00 0.00 0.00 0.00 0.00 0.00 0.00 0.00 0.00 0.00 0.00 0.00 0.00 0.00 0.00 0.00 0.00 0.00 0.00 0.00 0.00 0.00 0.00 0.00 0.00 0.00 0.00 0.00 0.00 0.00 0.00 0.00 0.00 0.00 0.00 0.00 0.00 0.00 0.00 0.00 0.00 0.00 0.00
0.01 0.01 0.00 0.00 0.00 0.00 0.00 0.00 0.00 0.00 0.00 0.00 0.00 0.00 0.00 0.00 0.00 0.00 0.00 0.00 0.00 0.00 0.00 0.00 0.00 0.00 0.00 0.00 0.00 0.00 0.00 0.00 0.00 0.00 0.00 0.00 0.00 0.00 0.00 0.00 0.00 0.00 0.01 0.00 0.00 0.00 0.00 0.00 0.00
0.01 0.01 0.01 0.00 0.00 0.00 0.00 0.00 0.00 0.00 0.00 0.00 0.00 0.00 0.00 0.00 0.00 0.00 0.00 0.00 0.00 0.00 0.00 0.00 0.00 0.00 0.00 0.00 0.00 0.00 0.00 0.00 0.00 0.00 0.00 0.00 0.00 0.00 0.00 0.00 0.00 0.00 0.01 0.01 0.00 0.00 0.01 0.01 0.00
0.02 0.01 0.00 0.01 0.01 0.01 0.01 0.00 0.00 0.00 0.00 0.00 0.00 0.00 0.00 0.00 0.00 0.00 0.00 0.00 0.00 0.00 0.00 0.00 0.00 0.00 0.00 0.00 0.00 0.00 0.00 0.00 0.00 0.00 0.00 0.00 0.00 0.00 0.00 0.00 0.00 0.00 0.01 0.01 0.00 0.01 0.01 0.01 0.01
0.02 0.01 0.01 0.01 0.02 0.02 0.02 0.01 0.00 0.00 0.00 0.00 0.00 0.00 0.00 0.00 0.00 0.00 0.00 0.00 0.00 0.00 0.00 0.00 0.00 0.00 0.00 0.00 0.00 0.00 0.00 0.00 0.00 0.00 0.00 0.00 0.00 0.00 0.00 0.00 0.00 0.00 0.00 0.00 0.00 0.00 0.01 0.01 0.01
0.02 0.01 0.02 0.03 0.04 0.05 0.03 0.02 0.00 0.00 0.00 0.00 0.00 0.00 0.00 0.00 0.00 0.00 0.00 0.00 0.00 0.00 0.00 0.00 0.00 0.00 0.00 0.00 0.00 0.00 0.00 0.00 0.00 0.00 0.00 0.00 0.00 0.00 0.00 0.00 0.00 0.00 0.00 0.00 0.00 0.01 0.01 0.01 0.01
0.03 0.03 0.05 0.06 0.09 0.08 0.03 0.02 0.01 0.00 0.00 0.00 0.00 0.00 0.00 0.00 0.00 0.00 0.00 0.00 0.00 0.00 0.00 0.00 0.00 0.00 0.00 0.00 0.00 0.00 0.00 0.00 0.00 0.00 0.00 0.00 0.00 0.00 0.00 0.00 0.00 0.00 0.00 0.00 0.00 0.01 0.01 0.01 0.01
0.04 0.07 0.11 0.12 0.12 0.06 0.01 0.01 0.00 0.00 0.00 0.00 0.00 0.00 0.00 0.00 0.00 0.00 0.00 0.00 0.00 0.00 0.00 0.00 0.00 0.00 0.00 0.00 0.00 0.00 0.00 0.00 0.00 0.00 0.00 0.00 0.00 0.00 0.00 0.00 0.00 0.00 0.00 0.00 0.00 0.01 0.01 0.01 0.01
0.02 0.04 0.08 0.07 0.03 0.01 0.00 0.00 0.00 0.00 0.00 0.00 0.00 0.00 0.00 0.00 0.00 0.00 0.00 0.00 0.00 0.00 0.00 0.00 0.00 0.00 0.00 0.00 0.00 0.00 0.00 0.00 0.00 0.00 0.00 0.00 0.00 0.00 0.00 0.00 0.00 0.00 0.00 0.00 0.01 0.01 0.01 0.01 0.01
0.02 0.03 0.03 0.06 0.06 0.04 0.01 0.00 0.00 0.00 0.00 0.00 0.00 0.00 0.00 0.00 0.00 0.00 0.00 0.00 0.00 0.00 0.00 0.00 0.00 0.00 0.00 0.00 0.00 0.00 0.00 0.00 0.00 0.00 0.00 0.00 0.00 0.00 0.00 0.01 0.01 0.00 0.01 0.01 0.01 0.01 0.01 0.01 0.01
0.02 0.03 0.06 0.10 0.11 0.06 0.02 0.00 0.00 0.00 0.00 0.00 0.00 0.00 0.00 0.00 0.00 0.00 0.00 0.00 0.00 0.00 0.00 0.00 0.00 0.00 0.00 0.00 0.00 0.00 0.00 0.00 0.00 0.00 0.00 0.00 0.00 0.00 0.00 0.00 0.00 0.01 0.01 0.01 0.01 0.01 0.01 0.01 0.01
0.02 0.04 0.06 0.08 0.08 0.04 0.01 0.00 0.00 0.00 0.00 0.00 0.00 0.00 0.00 0.00 0.00 0.00 0.00 0.00 0.00 0.00 0.00 0.00 0.00 0.00 0.00 0.00 0.00 0.00 0.00 0.00 0.00 0.00 0.00 0.00 0.00 0.00 0.00 0.00 0.00 0.01 0.01 0.01 0.01 0.01 0.02 0.02 0.02
0.03 0.03 0.04 0.07 0.06 0.03 0.02 0.00 0.00 0.00 0.00 0.00 0.00 0.00 0.00 0.00 0.00 0.00 0.00 0.00 0.00 0.00 0.00 0.00 0.00 0.00 0.00 0.00 0.00 0.00 0.00 0.00 0.00 0.00 0.00 0.00 0.00 0.00 0.00 0.00 0.00 0.00 0.00 0.01 0.01 0.01 0.01 0.02 0.02
MSLP
1014.79 1014.89 1015.25 1015.82 1016.53 1017.28 1017.99 1018.57 1018.99 1019.24 1019.34 1019.32 1019.25 1019.15 1019.06 1018.99 1018.94 1018.92 1018.92 1018.96 1019.06 1019.22 1019.46 1019.78 1020.16 1020.55 1020.92 1021.23 1021.45 1021.58 1021.63 1021.63 1021.63 1021.66 1021.75 1021.89 1022.06 1022.24 1022.40 1022.51 1022.57 1022.59 1022.59 1022.59 1022.63 1022.71 1022.83 1022.96 1023.07
1015.06 1015.24 1015.68 1016.30 1017.02 1017.74 1018.36 1018.81 1019.07 1019.15 1019.10 1018.97 1018.83 1018.72 1018.66 1018.66 1018.70 1018.76 1018.84 1018.93 1019.05 1019.22 1019.46 1019.76 1020.12 1020.51 1020.90 1021.23 1021.49 1021.67 1021.78 1021.84 1021.88 1021.95 1022.06 1022.21 1022.38 1022.56 1022.70 1022.80 1022.84 1022.86 1022.85 1022.87 1022.92 1023.01 1023.13 1023.25 1023.35
1015.48 1015.72 1016.19 1016.81 1017.49 1018.12 1018.61 1018.92 1019.02 1018.96 1018.79 1018.59 1018.42 1018.34 1018.34 1018.43 1018.57 1018.73 1018.88 1019.02 1019.16 1019.33 1019.54 1019.81 1020.14 1020.51 1020.89 1021.25 1021.54 1021.77 1021.92 1022.03 1022.13 1022.23 1022.36 1022.51 1022.68 1022.84 1022.97 1023.06 1023.10 1023.12 1023.14 1023.17 1023.24 1023.34 1023.46 1023.57 1023.65
1016.04 1016.30 1016.76 1017.33 1017.91 1018.41 1018.76 1018.91 1018.87 1018.69 1018.45 1018.22 1018.07 1018.03 1018.12 1018.31 1018.55 1018.80 1019.02 1019.20 1019.36 1019.51 1019.69 1019.93 1020.22 1020.57 1020.94 1021.30 1021.62 1021.88 1022.07 1022.22 1022.35 1022.47 1022.61 1022.76 1022.92 1023.07 1023.20 1023.29 1023.35 1023.40 1023.44 1023.51 1023.60 1023.72 1023.83 1023.93 1023.97
1016.66 1016.92 1017.32 1017.80 1018.26 1018.61 1018.80 1018.81 1018.66 1018.40 1018.12 1017.90 1017.79 1017.83 1018.01 1018.29 1018.62 1018.94 1019.21 1019.43 1019.59 1019.73 1019.89 1020.10 1020.36 1020.69 1021.04 1021.39 1021.72 1022.00 1022.22 1022.39 1022.54 1022.67 1022.82 1022.97 1023.12 1023.27 1023.40 1023.51 1023.60 1023.68 1023.77 1023.88 1024.00 1024.12 1024.24 1024.31 1024.32
1017.29 1017.51 1017.83 1018.19 1018.50 1018.69 1018.74 1018.63 1018.40 1018.11 1017.84 1017.66 1017.62 1017.74 1017.99 1018.35 1018.74 1019.10 1019.41 1019.64 1019.80 1019.94 1020.09 1020.27 1020.52 1020.82 1021.16 1021.51 1021.83 1022.11 1022.34 1022.53 1022.68 1022.82 1022.97 1023.12 1023.27 1023.43 1023.57 1023.71 1023.83 1023.96 1024.09 1024.24 1024.38 1024.52 1024.63 1024.67 1024.66
1017.84 1018.01 1018.23 1018.45 1018.61 1018.67 1018.60 1018.41 1018.14 1017.86 1017.63 1017.51 1017.55 1017.73 1018.05 1018.45 1018.87 1019.25 1019.55 1019.78 1019.95 1020.08 1020.23 1020.41 1020.65 1020.94 1021.26 1021.60 1021.91 1022.19 1022.42 1022.61 1022.77 1022.92 1023.07 1023.22 1023.39 1023.56 1023.72 1023.88 1024.04 1024.20 1024.37 1024.54 1024.71 1024.85 1024.94 1024.97 1024.93
1018.28 1018.38 1018.49 1018.58 1018.60 1018.54 1018.38 1018.15 1017.89 1017.65 1017.48 1017.45 1017.55 1017.80 1018.15 1018.56 1018.97 1019.33 1019.62 1019.84 1020.00 1020.13 1020.28 1020.46 1020.71 1020.99 1021.31 1021.63 1021.93 1022.20 1022.42 1022.61 1022.78 1022.94 1023.11 1023.28 1023.46 1023.65 1023.83 1024.01 1024.19 1024.38 1024.56 1024.75 1024.92 1025.06 1025.14 1025.16 1025.10
1018.59 1018.62 1018.62 1018.58 1018.49 1018.34 1018.13 1017.89 1017.65 1017.47 1017.39 1017.43 1017.60 1017.88 1018.24 1018.63 1019.01 1019.33 1019.58 1019.78 1019.93 1020.07 1020.23 1020.43 1020.68 1020.97 1021.28 1021.58 1021.87 1022.12 1022.34 1022.53 1022.71 1022.90 1023.08 1023.28 1023.49 1023.69 1023.89 1024.08 1024.26 1024.45 1024.64 1024.82 1024.98 1025.11 1025.19 1025.20 1025.14
1018.78 1018.73 1018.63 1018.50 1018.31 1018.10 1017.86 1017.63 1017.44 1017.33 1017.32 1017.42 1017.63 1017.93 1018.27 1018.62 1018.94 1019.21 1019.43 1019.60 1019.74 1019.89 1020.07 1020.30 1020.56 1020.85 1021.15 1021.45 1021.71 1021.95 1022.16 1022.36 1022.56 1022.77 1022.99 1023.22 1023.45 1023.67 1023.87 1024.06 1024.24 1024.41 1024.58 1024.75 1024.90 1025.02 1025.10 1025.12 1025.07
1018.87 1018.75 1018.57 1018.36 1018.11 1017.85 1017.61 1017.39 1017.25 1017.19 1017.23 1017.37 1017.59 1017.87 1018.18 1018.47 1018.74 1018.96 1019.14 1019.29 1019.44 1019.62 1019.82 1020.07 1020.36 1020.65 1020.95 1021.22 1021.47 1021.69 1021.90 1022.10 1022.32 1022.56 1022.82 1023.08 1023.34 1023.57 1023.78 1023.95 1024.11 1024.26 1024.41 1024.55 1024.70 1024.82 1024.90 1024.93 1024.90
1018.89 1018.71 1018.48 1018.21 1017.93 1017.65 1017.40 1017.20 1017.07 1017.03 1017.09 1017.23 1017.43 1017.67 1017.92 1018.16 1018.37 1018.55 1018.71 1018.86 1019.03 1019.24 1019.48 1019.77 1020.07 1020.38 1020.66 1020.92 1021.15 1021.35 1021.56 1021.77 1022.01 1022.28 1022.57 1022.86 1023.14 1023.39 1023.59 1023.76 1023.90 1024.02 1024.14 1024.27 1024.41 1024.53 1024.63 1024.69 1024.69
1018.83 1018.62 1018.37 1018.09 1017.79 1017.50 1017.24 1017.04 1016.90 1016.85 1016.87 1016.97 1017.12 1017.30 1017.49 1017.67 1017.83 1017.98 1018.13 1018.30 1018.51 1018.76 1019.05 1019.37 1019.70 1020.02 1020.31 1020.55 1020.77 1020.96 1021.15 1021.37 1021.63 1021.92 1022.24 1022.56 1022.86 1023.12 1023.33 1023.48 1023.60 1023.71 1023.82 1023.94 1024.08 1024.22 1024.34 1024.43 1024.46
1018.72 1018.51 1018.27 1018.00 1017.72 1017.43 1017.17 1016.93 1016.75 1016.64 1016.59 1016.60 1016.67 1016.77 1016.88 1017.00 1017.13 1017.26 1017.42 1017.62 1017.87 1018.17 1018.51 1018.88 1019.24 1019.58 1019.87 1020.12 1020.33 1020.51 1020.71 1020.93 1021.20 1021.50 1021.84 1022.18 1022.50 1022.77 1022.98 1023.13 1023.25 1023.34 1023.45 1023.58 1023.73 1023.90 1024.05 1024.17 1024.22
1018.53 1018.37 1018.18 1017.96 1017.71 1017.44 1017.15 1016.87 1016.61 1016.40 1016.25 1016.15 1016.11 1016.12 1016.16 1016.22 1016.32 1016.44 1016.62 1016.84 1017.13 1017.47 1017.86 1018.27 1018.67 1019.04 1019.35 1019.61 1019.83 1020.02 1020.22 1020.44 1020.72 1021.03 1021.38 1021.73 1022.06 1022.34 1022.55 1022.71 1022.83 1022.94 1023.06 1023.20 1023.38 1023.57 1023.75 1023.89 1023.96
1018.30 1018.21 1018.10 1017.96 1017.76 1017.50 1017.18 1016.84 1016.49 1016.16 1015.88 1015.66 1015.50 1015.41 1015.38 1015.40 1015.47 1015.58 1015.76 1016.00 1016.31 1016.68 1017.10 1017.55 1017.98 1018.39 1018.74 1019.02 1019.26 1019.47 1019.68 1019.92 1020.19 1020.51 1020.86 1021.21 1021.54 1021.82 1022.05 1022.23 1022.37 1022.49 1022.63 1022.80 1023.00 1023.22 1023.42 1023.58 1023.66
1018.03 1018.04 1018.04 1017.98 1017.83 1017.58 1017.23 1016.81 1016.35 1015.90 1015.49 1015.15 1014.89 1014.72 1014.63 1014.61 1014.65 1014.75 1014.92 1015.15 1015.46 1015.83 1016.26 1016.72 1017.18 1017.62 1018.01 1018.34 1018.62 1018.87 1019.10 1019.35 1019.63 1019.94 1020.28 1020.62 1020.95 1021.24 1021.48 1021.68 1021.84 1021.99 1022.16 1022.36 1022.58 1022.81 1023.03 1023.20 1023.29
1017.75 1017.88 1017.99 1018.01 1017.90 1017.65 1017.26 1016.75 1016.19 1015.61 1015.09 1014.65 1014.31 1014.09 1013.96 1013.91 1013.93 1014.01 1014.14 1014.34 1014.61 1014.94 1015.35 1015.80 1016.28 1016.75 1017.18 1017.57 1017.90 1018.19 1018.46 1018.72 1019.00 1019.30 1019.63 1019.96 1020.28 1020.57 1020.83 1021.05 1021.25 1021.43 1021.63 1021.85 1022.09 1022.34 1022.57 1022.74 1022.82
1017.52 1017.75 1017.94 1018.02 1017.94 1017.66 1017.21 1016.62 1015.94 1015.27 1014.66 1014.15 1013.77 1013.52 1013.38 1013.33 1013.33 1013.38 1013.46 1013.60 1013.80 1014.07 1014.42 1014.84 1015.31 1015.79 1016.27 1016.71 1017.10 1017.44 1017.74 1018.03 1018.31 1018.60 1018.90 1019.22 1019.53 1019.83 1020.10 1020.35 1020.58 1020.81 1021.03 1021.28 1021.54 1021.79 1022.02 1022.20 1022.29
1017.35 1017.65 1017.90 1018.00 1017.90 1017.57 1017.03 1016.34 1015.58 1014.82 1014.14 1013.61 1013.23 1012.99 1012.88 1012.84 1012.84 1012.86 1012.89 1012.95 1013.05 1013.23 1013.50 1013.86 1014.30 1014.79 1015.29 1015.78 1016.22 1016.61 1016.95 1017.25 1017.53 1017.80 1018.09 1018.39 1018.70 1019.00 1019.30 1019.58 1019.85 1020.11 1020.37 1020.64 1020.91 1021.18 1021.41 1021.59 1021.68
1017.24 1017.58 1017.83 1017.90 1017.74 1017.33 1016.69 1015.90 1015.04 1014.22 1013.51 1012.98 1012.63 1012.44 1012.38 1012.38 1012.39 1012.39 1012.37 1012.34 1012.34 1012.42 1012.59 1012.87 1013.26 1013.74 1014.25 1014.77 1015.25 1015.68 1016.05 1016.36 1016.64 1016.90 1017.18 1017.47 1017.77 1018.10 1018.42 1018.74 1019.05 1019.36 1019.66 1019.95 1020.23 1020.50 1020.74 1020.93 1021.04
1017.17 1017.50 1017.71 1017.72 1017.46 1016.93 1016.17 1015.27 1014.32 1013.45 1012.74 1012.23 1011.93 1011.81 1011.81 1011.86 1011.90 1011.89 1011.83 1011.73 1011.63 1011.60 1011.67 1011.87 1012.21 1012.65 1013.16 1013.69 1014.20 1014.65 1015.03 1015.35 1015.63 1015.89 1016.15 1016.44 1016.76 1017.10 1017.46 1017.83 1018.19 1018.54 1018.88 1019.20 1019.50 1019.78 1020.03 1020.23 1020.37
1017.10 1017.39 1017.53 1017.43 1017.05 1016.39 1015.50 1014.49 1013.47 1012.56 1011.84 1011.36 1011.12 1011.07 1011.14 1011.24 1011.31 1011.30 1011.20 1011.04 1010.87 1010.74 1010.73 1010.85 1011.13 1011.53 1012.02 1012.54 1013.05 1013.50 1013.89 1014.21 1014.48 1014.73 1015.00 1015.30 1015.64 1016.02 1016.43 1016.86 1017.27 1017.67 1018.05 1018.39 1018.71 1019.01 1019.27 1019.49 1019.66
1017.00 1017.22 1017.27 1017.06 1016.55 1015.76 1014.76 1013.65 1012.56 1011.61 1010.88 1010.42 1010.22 1010.22 1010.34 1010.48 1010.57 1010.56 1010.44 1010.23 1010.00 1009.81 1009.72 1009.78 1009.99 1010.35 1010.80 1011.30 1011.79 1012.23 1012.61 1012.92 1013.19 1013.45 1013.73 1014.06 1014.43 1014.86 1015.33 1015.81 1016.28 1016.73 1017.14 1017.52 1017.86 1018.16 1018.44 1018.68 1018.88
1016.82 1016.98 1016.94 1016.62 1016.01 1015.12 1014.02 1012.84 1011.70 1010.71 1009.97 1009.51 1009.32 1009.34 1009.47 1009.62 1009.71 1009.69 1009.54 1009.31 1009.03 1008.79 1008.65 1008.66 1008.82 1009.12 1009.53 1009.99 1010.44 1010.86 1011.22 1011.52 1011.79 1012.06 1012.37 1012.73 1013.15 1013.64 1014.17 1014.71 1015.23 1015.72 1016.17 1016.57 1016.92 1017.24 1017.52 1017.79 1018.02
1016.57 1016.67 1016.56 1016.17 1015.48 1014.53 1013.38 1012.15 1010.98 1009.97 1009.21 1008.73 1008.51 1008.50 1008.60 1008.73 1008.79 1008.74 1008.56 1008.30 1008.00 1007.73 1007.55 1007.52 1007.63 1007.88 1008.23 1008.64 1009.04 1009.42 1009.75 1010.05 1010.32 1010.62 1010.96 1011.37 1011.85 1012.39 1012.98 1013.57 1014.14 1014.67 1015.14 1015.55 1015.91 1016.24 1016.54 1016.82 1017.08
1016.26 1016.31 1016.15 1015.72 1015.00 1014.03 1012.87 1011.64 1010.46 1009.45 1008.67 1008.15 1007.88 1007.80 1007.84 1007.89 1007.89 1007.79 1007.58 1007.29 1006.97 1006.69 1006.49 1006.42 1006.49 1006.69 1006.98 1007.32 1007.67 1008.00 1008.30 1008.59 1008.88 1009.20 1009.59 1010.05 1010.59 1011.20 1011.83 1012.47 1013.07 1013.62 1014.10 1014.52 1014.88 1015.21 1015.51 1015.81 1016.10
1015.90 1015.91 1015.72 1015.27 1014.56 1013.60 1012.48 1011.29 1010.14 1009.14 1008.34 1007.78 1007.45 1007.28 1007.21 1007.17 1007.09 1006.92 1006.68 1006.37 1006.04 1005.75 1005.54 1005.45 1005.48 1005.63 1005.86 1006.13 1006.42 1006.70 1006.98 1007.25 1007.56 1007.91 1008.35 1008.87 1009.47 1010.13 1010.81 1011.48 1012.10 1012.65 1013.13 1013.54 1013.90 1014.22 1014.53 1014.84 1015.15
1015.52 1015.47 1015.24 1014.78 1014.09 1013.18 1012.12 1011.01 1009.92 1008.95 1008.16 1007.56 1007.16 1006.90 1006.73 1006.58 1006.41 1006.19 1005.90 1005.58 1005.26 1004.99 1004.79 1004.69 1004.70 1004.80 1004.97 1005.18 1005.41 1005.65 1005.89 1006.17 1006.49 1006.89 1007.38 1007.96 1008.61 1009.31 1010.02 1010.71 1011.33 1011.87 1012.34 1012.73 1013.07 1013.39 1013.71 1014.03 1014.36
1015.08 1014.95 1014.65 1014.17 1013.48 1012.62 1011.64 1010.61 1009.60 1008.69 1007.93 1007.32 1006.87 1006.53 1006.28 1006.05 1005.81 1005.55 1005.25 1004.95 1004.66 1004.42 1004.25 1004.17 1004.18 1004.26 1004.39 1004.55 1004.73 1004.93 1005.15 1005.43 1005.78 1006.22 1006.76 1007.39 1008.09 1008.82 1009.55 1010.24 1010.85 1011.38 1011.82 1012.19 1012.51 1012.82 1013.14 1013.47 1013.83
Thickness
5738 5744 5748 5747 5736 5723 5712 5714 5720 5718 5721 5725 5725 5724 5722 5721 5716 5711 5717 5720 5718 5713 5709 5704 5701 5699 5698 5696 5695 5694 5692 5692 5691 5690 5689 5689 5688 5688 5687 5687 5687 5687 5687 5686 5686 5685 5685 5684 5684
5736 5742 5743 5738 5723 5709 5708 5716 5716 5719 5723 5723 5723 5723 5722 5721 5721 5718 5718 5717 5716 5712 5709 5705 5701 5699 5697 5696 5694 5693 5692 5691 5690 5689 5688 5687 5687 5686 5686 5685 5685 5685 5685 5684 5684 5683 5683 5682 5682
5734 5737 5732 5724 5714 5710 5709 5716 5719 5720 5721 5722 5721 5722 5722 5720 5720 5719 5720 5717 5714 5711 5708 5704 5701 5699 5697 5695 5694 5692 5691 5690 5689 5688 5687 5686 5685 5684 5684 5683 5683 5683 5682 5682 5681 5681 5680 5680 5679
5728 5728 5724 5715 5705 5710 5715 5718 5720 5717 5717 5720 5721 5719 5720 5719 5720 5721 5719 5716 5714 5710 5707 5703 5700 5698 5696 5694 5693 5691 5690 5689 5688 5686 5685 5684 5683 5683 5682 5681 5681 5681 5680 5680 5679 5679 5678 5677 5677
5721 5716 5706 5700 5702 5709 5714 5717 5718 5716 5717 5719 5719 5718 5717 5718 5720 5719 5717 5714 5712 5709 5705 5702 5698 5697 5695 5693 5692 5690 5689 5688 5686 5685 5684 5683 5682 5681 5680 5680 5679 5679 5678 5678 5677 5676 5676 5675 5675
5706 5705 5694 5692 5698 5705 5711 5714 5715 5716 5717 5716 5717 5717 5717 5716 5717 5716 5715 5713 5711 5707 5704 5701 5697 5695 5693 5692 5691 5689 5688 5687 5685 5684 5683 5682 5681 5680 5679 5678 5677 5677 5676 5676 5675 5674 5674 5673 5672
5693 5692 5689 5692 5693 5698 5706 5711 5713 5714 5714 5716 5719 5715 5715 5714 5714 5714 5713 5711 5709 5706 5703 5700 5697 5694 5692 5691 5689 5688 5686 5685 5684 5683 5681 5680 5679 5678 5677 5676 5676 5675 5674 5674 5673 5672 5671 5671 5670
5689 5687 5683 5688 5690 5694 5704 5707 5710 5712 5713 5716 5717 5715 5714 5715 5712 5710 5708 5707 5706 5703 5702 5699 5697 5695 5693 5690 5688 5686 5685 5684 5683 5681 5680 5679 5678 5677 5676 5675 5674 5673 5672 5671 5671 5670 5669 5668 5668
5679 5675 5677 5684 5688 5694 5699 5701 5705 5708 5710 5709 5711 5713 5712 5712 5708 5705 5702 5702 5701 5700 5700 5699 5697 5695 5693 5691 5688 5686 5684 5683 5681 5680 5679 5677 5677 5676 5675 5674 5672 5671 5670 5669 5669 5668 5667 5666 5666
5668 5666 5678 5687 5691 5693 5694 5697 5701 5702 5703 5704 5706 5706 5706 5705 5703 5702 5701 5700 5700 5699 5699 5698 5696 5694 5692 5690 5688 5686 5684 5683 5682 5681 5679 5678 5677 5676 5674 5672 5671 5670 5669 5668 5667 5666 5665 5665 5665
5660 5664 5673 5677 5682 5686 5687 5690 5695 5697 5698 5705 5707 5706 5701 5700 5700 5701 5701 5702 5701 5701 5699 5698 5696 5694 5692 5690 5688 5687 5685 5684 5682 5681 5679 5678 5676 5675 5673 5672 5671 5669 5668 5667 5666 5665 5665 5665 5664
5651 5658 5664 5669 5671 5675 5680 5684 5687 5693 5701 5705 5707 5706 5701 5698 5699 5701 5701 5702 5701 5700 5699 5698 5696 5694 5692 5690 5689 5687 5685 5684 5683 5681 5679 5678 5677 5675 5674 5673 5672 5670 5669 5667 5667 5665 5665 5663 5662
5642 5649 5654 5659 5661 5667 5671 5676 5681 5689 5697 5699 5699 5698 5699 5699 5700 5701 5702 5701 5700 5699 5699 5698 5696 5695 5692 5690 5689 5687 5686 5684 5683 5681 5679 5678 5677 5676 5674 5673 5671 5670 5669 5667 5666 5665 5664 5663 5662
5636 5641 5645 5650 5654 5658 5661 5668 5671 5686 5690 5691 5692 5695 5697 5698 5699 5699 5699 5700 5700 5699 5699 5699 5697 5695 5693 5691 5690 5688 5687 5685 5683 5682 5680 5678 5677 5676 5674 5673 5671 5670 5668 5667 5665 5665 5663 5662 5661
5625 5627 5633 5640 5645 5650 5652 5657 5670 5684 5683 5684 5688 5692 5693 5695 5696 5698 5700 5700 5701 5700 5699 5698 5697 5695 5693 5691 5690 5688 5687 5685 5684 5682 5680 5678 5677 5675 5674 5673 5671 5670 5668 5666 5664 5663 5662 5661 5660
5612 5614 5621 5635 5638 5641 5640 5654 5674 5678 5675 5679 5685 5688 5689 5692 5695 5698 5699 5699 5700 5699 5698 5698 5695 5694 5693 5691 5690 5688 5687 5685 5684 5682 5681 5679 5677 5675 5673 5672 5671 5669 5667 5665 5663 5662 5661 5660 5659
5599 5606 5617 5626 5631 5633 5634 5648 5666 5668 5668 5673 5680 5683 5686 5689 5693 5696 5698 5698 5698 5698 5697 5696 5695 5694 5693 5691 5689 5688 5686 5685 5684 5682 5681 5679 5677 5675 5673 5672 5671 5668 5666 5664 5662 5660 5659 5658 5657
5597 5604 5610 5617 5623 5623 5627 5641 5655 5658 5659 5667 5674 5679 5682 5685 5692 5695 5696 5696 5695 5695 5695 5694 5693 5692 5691 5689 5687 5686 5685 5684 5683 5682 5681 5678 5676 5674 5672 5671 5669 5666 5664 5662 5660 5658 5656 5655 5654
5594 5597 5602 5611 5613 5612 5621 5631 5645 5653 5653 5659 5667 5673 5679 5684 5690 5692 5692 5691 5691 5691 5691 5691 5691 5690 5688 5687 5685 5684 5684 5683 5682 5682 5680 5678 5675 5673 5671 5669 5667 5665 5663 5661 5659 5656 5653 5651 5649
5576 5582 5591 5595 5597 5600 5610 5621 5637 5645 5649 5656 5662 5669 5675 5680 5684 5685 5686 5686 5686 5687 5687 5688 5688 5688 5686 5686 5685 5685 5684 5683 5682 5681 5678 5676 5673 5671 5669 5667 5666 5663 5661 5659 5656 5653 5651 5649 5646
5564 5572 5580 5581 5581 5586 5592 5610 5628 5642 5645 5651 5658 5665 5671 5674 5678 5681 5681 5681 5681 5682 5683 5684 5685 5684 5684 5682 5680 5680 5679 5679 5678 5678 5676 5674 5671 5669 5667 5665 5663 5661 5658 5657 5654 5651 5648 5646 5644
5556 5566 5566 5565 5564 5574 5578 5593 5627 5635 5639 5645 5653 5659 5666 5670 5673 5675 5675 5675 5676 5677 5677 5678 5679 5679 5678 5677 5676 5675 5675 5676 5678 5676 5674 5671 5668 5665 5663 5661 5659 5657 5655 5653 5651 5648 5645 5642 5641
5549 5553 5552 5552 5552 5556 5567 5568 5612 5623 5631 5644 5651 5656 5661 5664 5666 5667 5667 5667 5668 5669 5669 5670 5672 5673 5673 5672 5671 5670 5670 5672 5672 5671 5668 5666 5664 5661 5658 5656 5654 5652 5650 5648 5646 5643 5640 5638 5636
5535 5534 5535 5536 5534 5539 5567 5564 5597 5618 5632 5642 5647 5651 5653 5654 5655 5655 5657 5657 5659 5660 5661 5662 5663 5664 5665 5665 5665 5664 5665 5665 5663 5663 5662 5660 5658 5656 5653 5651 5648 5646 5644 5643 5640 5638 5635 5633 5631
5520 5519 5517 5519 5523 5544 5568 5564 5595 5620 5628 5635 5639 5641 5643 5643 5643 5644 5645 5646 5647 5648 5650 5651 5653 5655 5656 5656 5656 5657 5658 5657 5656 5655 5654 5652 5651 5649 5647 5644 5642 5640 5638 5635 5633 5631 5629 5627 5625
5518 5519 5519 5523 5534 5550 5547 5561 5597 5604 5612 5618 5624 5628 5627 5628 5630 5630 5632 5634 5635 5637 5638 5640 5642 5644 5645 5646 5646 5647 5647 5647 5647 5647 5646 5644 5643 5641 5638 5635 5633 5631 5629 5627 5625 5623 5621 5619 5618
5509 5511 5522 5516 5514 5522 5543 5562 5580 5585 5593 5601 5607 5611 5613 5615 5616 5617 5619 5620 5622 5624 5626 5628 5630 5631 5633 5634 5635 5636 5636 5636 5636 5636 5634 5633 5632 5631 5629 5626 5624 5622 5619 5618 5616 5614 5612 5610 5609
5507 5510 5502 5497 5503 5514 5536 5553 5576 5581 5586 5591 5595 5599 5601 5600 5601 5602 5604 5605 5607 5610 5612 5613 5615 5617 5619 5621 5622 5623 5624 5624 5623 5623 5622 5621 5621 5619 5617 5616 5614 5611 5609 5607 5605 5604 5602 5600 5599
5494 5494 5497 5498 5502 5511 5525 5554 5579 5580 5582 5584 5586 5587 5587 5586 5587 5588 5589 5590 5591 5594 5596 5598 5600 5602 5604 5606 5607 5608 5608 5609 5609 5609 5609 5608 5607 5606 5604 5603 5601 5599 5597 5595 5593 5591 5590 5589 5588
5491 5496 5496 5490 5494 5504 5515 5543 5564 5566 5568 5570 5572 5571 5570 5570 5571 5572 5572 5573 5575 5577 5580 5582 5584 5586 5588 5589 5590 5591 5592 5593 5593 5593 5593 5593 5592 5592 5590 5589 5587 5586 5584 5582 5580 5578 5577 5576 5575